STARLINK-35385

Last updated on Mon Oct 20 2025 00:02:08 GMT+0000 (Coordinated Universal Time)

1 65906U 25224AA 25292.25002315 -.01423862 00000+0 -65090-2 0 9998 2 65906 53.1507 313.2985 0001162 86.8575 130.0051 15.85961412 3138
UTC large
Height (km)
Speed (km/s)
/
Latitude / Longitude
Inclination (degrees)
Orbital Period (minutes)
Azimuth
Elevation
Range (km)
Doppler Factor

Next 0 passes for location: London (51.5072 / 0.1276)

Sorry there are no passes over London.